URSSURKA

Guest
Details From URSS - Sochi
To URKA - Vityazevo
Flight Number -
Tags generated
Created
Modified
Stats Distance 146 nm / 271 km
Max Altitude 14,700 ft / 4,481 m
Waypoints 5
Social Downloads 6
Likes 0
Share VATSIM

Download

Looking for another format? Having issues loading an existing format? Contact us
Advertisement - Login to hide

Notes

Basic altitude profile: - Ascent Rate: 2500ft/min - Ascent Speed: 250kts - Cruise Altitude: 35000ft - Cruise Speed: 420kts - Descent Rate: 1500ft/min - Descent Speed: 250kts Options: - Use NATs: yes - Use PACOTS: yes - Use low airways: yes - Use high airways: yes

Route

URSS PROZR B367 RUMBA URKA

ID Type Via Altitude Latitude Longitude Leg Dist Tot Dist Heading (true) Name
O URSS APT - 0 ft / 0 m 43.44475˚ 39.94730˚ - 0 nm - Sochi
PROZR FIX - 4,400 ft / 1,341 m 43.55806˚ 39.71028˚ 12 nm 12 nm 303° / 303° -
NIBUS FIX B367 (AWY-LO) 12,800 ft / 3,901 m 43.79667˚ 39.27667˚ 23 nm 36 nm 307° / 307° -
RUMBA FIX B367 (AWY-LO) 14,700 ft / 4,481 m 43.86667˚ 39.11667˚ 8 nm 44 nm 301° / 301° -
O URKA APT - 0 ft / 0 m 45.00190˚ 37.34761˚ 101 nm 146 nm 313° / 311° Vityazevo

Altitude Profile

Advertisement - Login to hide

URSS

Details ICAO URSS (AER)
Name Sochi
Region Russia
Timezone Europe/Moscow (UTC+3.0)
Stats Elevation 89 ft / 27 m (AMSL)
Location 43.444749° 39.947302°
Runways 2
Magnetic Variation 6.962° E

METAR

URSS 121600Z 05003MPS 9999 NSC 07/01 Q1024 R02/090070 R06/090070 NOSIG RMK R06/07004MPS QFE766

Decode

TAF

TAF URSS 121357Z 1215/1315 05005G10MPS 9999 SCT100 TEMPO 1309/1312 VRB01MPS

Decode

Departure Runways

ID Width Length Bearing (true) Bearing (mag) Surface Threshold Offset Overrun Length
02 161 ft / 49 m 7,267 ft / 2,215 m 28.98° 22.02° Concrete 0 ft / 0 m 0 ft / 0 m
06 164 ft / 50 m 9,531 ft / 2,905 m 64.90° 57.94° Concrete 262 ft / 80 m 0 ft / 0 m
20 161 ft / 49 m 7,267 ft / 2,215 m 208.99° 202.03° Concrete 0 ft / 0 m 0 ft / 0 m
24 164 ft / 50 m 9,531 ft / 2,905 m 244.92° 237.96° Concrete 0 ft / 0 m 0 ft / 0 m

URKA

Details ICAO URKA (AAQ)
Name Vityazevo
Region Russia
Timezone Europe/Moscow (UTC+3.0)
Stats Elevation 173 ft / 53 m (AMSL)
Location 45.001895° 37.347609°
Runways 2
Magnetic Variation 7.171° E

METAR

URKA 121600Z 20007MPS 9999 NSC 11/10 Q1022 R22/010070 TEMPO 18010G17MPS RMK QFE761/1015

Decode

TAF

TAF TAF URKA 121357Z 1215/1315 18008G14MPS 9999 SCT020

Decode

Destination Runways

ID Width Length Bearing (true) Bearing (mag) Surface Threshold Offset Overrun Length
04 138 ft / 42 m 7,961 ft / 2,426 m 43.79° 36.62° Concrete 0 ft / 0 m 157 ft / 48 m
04R 312 ft / 95 m 8,009 ft / 2,441 m 43.78° 36.61° Grass 0 ft / 0 m 0 ft / 0 m
22 138 ft / 42 m 7,961 ft / 2,426 m 223.81° 216.64° Concrete 0 ft / 0 m 164 ft / 50 m
22L 312 ft / 95 m 8,009 ft / 2,441 m 223.80° 216.63° Grass 0 ft / 0 m 0 ft / 0 m

Popular Alternatives